Theta_e
320 323 332 332 333 336 344 346 347 348 352 352 349 351 351 352 357 364 349 350 349 346 351 352 356 346 345 343 335 331 329 329 333 337 338 338 339 340 340 340 341 342 343 344 343 342 339 337 333
319 325 331 325 331 334 332 339 345 343 351 352 351 344 345 353 349 348 349 344 348 344 350 350 353 347 346 343 337 335 334 333 331 335 338 339 341 342 341 339 338 337 337 337 336 334 332 331 331
321 327 327 328 329 334 332 332 340 341 347 353 352 345 345 351 347 347 346 339 341 339 340 352 349 346 345 342 340 338 339 339 335 333 335 339 341 341 341 339 337 335 335 334 335 335 334 333 333
323 322 320 329 331 328 329 326 337 347 349 349 347 350 346 345 347 347 345 338 336 335 338 338 334 339 340 340 340 339 339 341 340 338 337 336 337 339 341 340 339 338 337 336 336 335 333 334 336
321 317 322 321 323 324 322 337 342 348 347 350 347 349 349 346 346 346 346 343 341 342 343 344 347 342 337 337 339 340 342 343 344 344 341 340 339 337 336 337 338 339 340 338 337 335 334 337 336
316 313 318 319 321 319 331 340 345 347 346 345 346 346 344 342 343 346 349 339 338 334 332 329 329 329 331 333 336 339 340 340 339 337 336 336 337 337 337 337 337 338 339 339 337 335 337 335 332
313 313 317 319 318 318 330 340 343 346 346 345 342 343 340 341 343 350 348 336 333 332 332 332 332 331 330 329 329 329 330 330 331 333 334 333 332 332 333 335 335 336 336 336 336 336 337 334 334
310 310 316 315 316 318 340 341 340 346 346 341 338 343 343 340 348 345 339 337 336 335 335 334 334 334 333 331 331 331 332 332 333 335 335 336 336 337 338 340 340 338 334 334 336 338 337 336 336
309 310 311 315 316 318 332 345 343 340 343 341 342 341 339 341 348 346 346 346 347 347 342 339 337 336 335 335 337 339 341 340 341 344 345 346 346 343 342 343 344 344 344 342 340 341 340 339 335
309 308 312 312 314 316 320 343 344 343 343 343 342 339 338 338 344 344 342 340 344 344 345 347 346 346 342 339 340 344 342 338 340 340 336 334 335 343 341 343 341 344 343 342 342 342 341 339 334
310 311 311 314 313 315 323 342 343 343 345 343 343 340 340 342 342 341 337 337 338 338 338 342 344 347 348 345 347 346 339 338 338 338 336 334 334 337 339 335 337 332 334 340 340 341 341 341 342
315 312 313 315 313 316 319 338 344 342 343 341 340 341 337 336 335 335 334 336 339 338 341 339 341 346 344 343 341 340 341 340 338 332 334 335 335 334 334 332 333 333 334 337 337 335 335 338 338
314 314 313 313 337 341 342 345 343 341 341 341 338 337 336 335 333 331 331 332 334 334 339 339 340 343 344 343 342 339 334 331 331 333 334 334 332 330 329 334 331 332 333 334 331 332 334 337 336
316 316 315 315 338 342 342 342 344 344 340 338 336 334 332 331 330 328 327 327 330 331 334 337 337 337 337 334 328 327 329 330 330 330 330 331 331 330 329 329 330 330 335 333 330 327 325 328 335
318 318 317 333 338 340 341 345 347 342 338 337 334 331 329 327 326 325 324 324 326 327 330 336 335 334 330 328 328 329 328 330 335 336 335 335 331 334 334 332 331 338 338 336 335 328 325 325 326
319 315 317 319 338 340 340 351 345 339 336 334 332 329 326 324 323 321 320 320 320 322 324 325 328 331 331 332 334 337 334 333 326 326 332 335 330 332 334 335 335 334 335 336 336 336 336 336 336
313 318 318 318 317 336 342 349 343 336 334 332 329 326 324 321 319 320 319 318 317 316 316 317 321 328 331 328 328 328 324 321 318 319 320 319 322 324 326 327 326 329 330 330 331 334 335 336 335
318 318 318 318 323 341 344 344 340 335 333 330 327 324 322 320 319 319 317 315 315 313 313 312 313 319 323 324 321 317 316 315 315 314 314 314 315 315 316 316 317 319 322 322 324 325 329 333 331
318 318 317 332 340 342 344 343 338 333 331 329 326 324 321 319 318 317 317 315 313 312 312 312 311 311 311 315 319 314 314 311 310 310 310 310 310 310 311 310 310 311 311 312 315 317 321 327 326
317 317 318 339 340 341 341 339 334 332 330 328 326 323 321 318 317 316 316 315 313 313 312 311 310 309 308 308 309 311 309 308 306 305 305 305 304 305 305 305 306 306 307 308 308 310 312 317 319
318 321 320 336 340 339 339 340 337 331 328 326 323 320 319 318 316 315 316 314 313 312 310 309 309 308 307 306 306 306 305 305 304 303 303 303 303 304 304 305 305 306 306 306 306 307 309 311 314
320 321 322 339 341 345 337 344 337 332 328 326 323 319 319 316 314 314 315 314 312 310 309 308 307 306 305 305 304 303 303 303 303 303 303 304 304 305 305 305 306 307 308 308 308 308 309 309 310
320 319 319 318 317 317 323 335 336 327 327 323 321 321 317 315 314 314 313 312 310 309 308 307 306 305 304 304 303 303 303 303 303 303 304 304 304 305 306 306 307 308 308 308 309 309 310 310 309
318 318 316 314 312 316 316 317 341 331 328 323 319 320 315 314 312 312 312 310 309 308 306 306 305 304 304 304 304 304 304 303 303 303 304 304 305 305 306 307 307 307 308 308 310 311 311 310 310
315 315 318 320 318 320 322 327 330 331 328 323 320 317 316 313 310 310 309 308 308 307 306 305 304 304 304 304 304 304 304 304 304 304 304 305 305 306 306 307 307 307 308 308 309 310 311 313 313
316 314 318 323 320 319 323 337 333 327 328 321 319 317 314 311 308 308 307 307 306 306 305 304 304 304 303 303 303 304 305 304 304 304 305 305 306 306 306 307 307 308 309 307 310 311 312 313 313
317 313 314 314 315 316 327 331 328 323 321 321 318 315 313 310 308 306 306 305 305 305 304 304 304 304 303 302 303 304 305 304 304 304 305 306 306 307 306 306 306 308 308 307 310 311 310 309 309
318 313 317 312 319 321 322 334 331 327 323 320 318 315 312 309 306 305 305 304 304 304 304 304 304 303 303 302 303 304 304 303 304 305 305 305 305 304 305 305 305 306 307 308 309 307 306 306 305
319 317 313 312 317 319 324 323 321 327 323 321 319 316 312 308 305 303 303 304 304 304 304 304 303 303 302 302 302 303 303 303 303 304 304 304 304 304 304 305 306 308 308 308 306 304 304 304 304
318 318 313 316 316 320 319 321 321 323 322 320 319 316 310 306 304 303 303 303 303 303 304 303 303 302 302 302 302 303 302 303 305 304 304 304 304 304 303 303 304 305 305 306 304 304 304 304 305
Wind_Speed
5 3 2 3 3 4 4 5 2 7 8 14 28 15 6 9 2 5 3 6 9 10 7 6 7 12 11 11 11 11 11 10 9 10 11 11 11 10 9 7 6 5 4 4 3 2 2 3 3
5 3 2 2 4 3 6 1 3 3 17 17 16 10 5 10 3 5 15 6 6 11 9 7 8 11 12 10 9 10 9 9 8 7 7 7 7 7 6 5 4 3 2 2 2 1 1 0 1
3 3 3 4 2 1 5 3 5 4 7 9 7 2 4 3 3 4 10 20 10 11 11 10 10 11 11 10 8 8 8 8 7 5 4 3 3 2 2 2 2 1 1 1 2 3 3 3 3
4 4 4 4 3 6 6 10 5 8 7 8 13 9 4 1 4 11 17 16 13 13 11 11 10 12 11 10 8 7 7 6 6 5 3 1 1 2 3 3 2 3 3 4 4 6 7 6 6
3 3 4 4 4 6 5 3 9 7 6 5 3 5 3 4 6 5 9 14 13 14 11 11 9 8 8 8 7 7 6 6 5 4 3 2 2 4 5 6 6 6 7 8 9 9 9 8 8
4 3 4 2 4 7 4 2 8 11 10 9 8 5 2 6 7 4 9 14 13 15 15 14 11 10 7 8 7 6 6 5 4 4 4 4 5 6 7 8 9 10 11 12 12 12 12 11 10
6 4 3 2 4 7 1 4 7 5 8 5 5 4 1 4 4 16 18 19 19 17 17 15 13 12 10 10 10 9 7 7 7 7 7 7 7 8 9 10 11 13 14 15 15 14 14 14 14
5 4 1 2 1 4 2 3 3 6 6 6 5 5 5 6 21 24 24 21 18 17 16 17 17 16 12 10 10 9 9 8 7 6 6 5 7 8 9 12 16 17 17 15 15 16 16 17 17
4 4 1 5 4 4 4 3 5 9 5 3 1 3 13 17 23 23 18 13 8 7 5 5 7 8 10 8 8 9 5 4 5 7 6 7 7 7 9 11 13 15 17 21 19 16 18 18 17
5 4 9 8 5 1 1 4 7 4 5 8 11 15 16 12 12 12 9 12 11 12 9 1 4 5 8 8 8 7 8 6 5 5 7 14 18 15 13 13 10 10 9 14 19 20 18 20 19
4 6 5 8 6 2 2 6 3 15 6 5 20 14 8 10 11 14 15 15 14 14 16 12 7 3 5 7 5 6 9 9 7 7 7 9 11 21 19 14 11 5 6 8 12 20 18 22 21
1 7 6 12 6 2 7 8 6 5 7 14 13 10 14 11 12 13 13 15 16 18 17 12 10 10 9 7 7 6 6 7 8 9 7 8 11 11 14 19 14 8 14 10 15 15 19 23 19
4 6 6 8 10 6 17 14 9 14 17 12 16 16 12 11 13 15 14 17 18 23 19 17 11 11 9 6 5 5 4 6 8 10 10 11 12 14 10 15 2 12 13 11 9 13 19 21 20
3 5 6 9 10 12 20 4 6 8 13 15 15 13 11 12 11 14 20 18 20 21 21 18 17 13 10 9 8 10 8 12 14 14 14 11 7 12 11 3 7 11 14 7 8 10 7 14 18
4 4 3 11 6 7 14 8 7 12 12 13 14 11 10 10 13 15 16 20 18 19 21 18 14 14 14 12 12 17 18 18 17 14 10 12 13 14 15 15 17 17 14 8 15 14 17 14 15
3 4 3 6 10 6 6 6 6 8 11 10 11 10 9 7 12 16 18 20 20 20 22 20 17 16 16 16 16 16 16 17 18 18 14 13 13 15 13 14 15 13 11 9 8 12 20 24 25
6 2 3 4 9 7 4 12 7 6 8 8 7 7 7 7 12 15 18 22 24 25 27 26 22 21 21 23 21 21 19 19 19 17 17 17 15 15 14 14 16 16 15 15 14 11 7 10 14
2 4 4 5 2 7 9 8 12 6 9 7 6 6 5 7 8 16 21 25 27 28 29 29 29 24 19 17 18 18 19 19 17 18 18 16 16 17 17 17 18 19 18 19 18 16 13 10 14
2 2 6 7 6 9 11 16 10 7 8 6 5 5 5 5 8 15 19 23 27 29 31 32 31 29 24 18 11 14 15 16 15 17 17 18 18 19 19 20 19 18 17 17 18 18 16 10 16
3 4 4 10 11 12 14 12 6 6 4 4 5 5 4 3 4 10 17 22 26 27 27 28 28 28 27 24 19 12 12 12 16 18 18 18 18 20 20 20 20 20 18 17 15 14 14 9 13
2 2 1 7 14 15 16 6 5 2 3 5 4 4 4 6 7 5 11 18 22 25 26 24 23 25 25 23 21 19 14 17 23 24 22 20 18 18 18 18 18 18 18 19 18 14 12 10 11
4 3 9 12 7 6 5 4 5 7 5 6 6 6 6 5 4 6 10 15 20 21 21 21 21 22 23 23 22 21 18 16 16 18 18 18 17 17 17 19 18 18 18 17 15 14 14 12 12
3 3 2 4 4 5 3 4 2 8 6 7 7 7 6 6 6 7 12 17 18 18 18 18 18 20 21 20 18 17 16 14 13 15 17 18 17 17 18 18 18 18 19 19 16 14 13 12 11
4 5 8 5 3 2 1 5 5 9 9 8 6 7 7 7 6 12 16 17 18 17 16 17 16 17 17 17 16 15 14 14 15 16 17 18 18 18 17 17 16 17 18 20 18 13 11 11 10
9 7 3 4 4 5 4 4 4 11 6 14 13 10 8 8 8 9 12 14 15 14 13 15 15 16 16 16 15 13 14 13 14 16 16 18 19 19 19 17 16 17 18 18 17 17 16 17 16
4 6 5 4 3 4 5 1 2 4 4 11 10 8 7 7 7 7 11 15 15 14 13 12 14 15 15 17 15 14 14 15 14 15 16 16 16 15 17 15 14 16 14 18 17 18 18 16 16
3 3 3 6 3 3 1 3 1 4 8 12 10 8 8 7 8 8 14 14 14 13 11 12 12 13 16 18 16 16 13 15 16 14 15 16 16 14 13 12 13 14 13 17 15 15 16 17 18
4 5 3 3 2 3 3 3 4 6 9 11 10 12 8 8 8 8 12 15 12 11 11 9 10 13 14 16 16 17 16 15 15 15 16 16 14 15 15 12 11 11 12 13 14 16 15 16 17
2 2 6 4 4 4 1 5 5 13 16 18 14 9 10 11 8 7 12 12 11 10 8 8 10 14 16 15 14 15 15 14 14 15 17 18 17 17 17 16 15 15 16 15 17 18 19 21 20
3 4 5 5 4 1 3 5 2 9 14 13 9 7 8 9 8 10 12 11 10 8 6 7 11 15 15 14 14 15 14 14 15 16 15 18 20 20 20 19 20 20 18 17 19 19 19 20 19
Wind_Direction
343 25 111 68 36 61 275 265 324 129 88 99 81 82 34 313 222 104 59 16 134 118 92 101 123 126 116 111 110 106 103 106 115 117 114 114 115 114 114 114 114 113 116 117 106 93 107 129 145
304 134 72 81 77 27 284 220 230 112 123 111 103 114 17 239 251 118 137 126 139 119 106 113 126 125 121 115 110 110 109 106 113 123 124 124 122 114 106 97 89 75 65 56 45 47 69 148 180
328 163 82 85 87 271 276 229 223 152 136 155 123 337 130 157 35 285 140 140 150 130 123 122 134 128 119 116 113 110 105 100 103 109 113 117 123 138 122 94 74 71 62 31 340 322 313 304 292
178 24 35 81 269 266 232 306 160 103 50 54 118 83 96 298 250 199 152 135 157 138 127 126 124 129 129 131 133 127 118 103 95 89 81 49 345 308 296 288 284 285 285 286 293 300 302 302 301
58 56 35 32 271 273 302 341 35 54 69 115 105 121 79 39 346 323 4 124 143 123 118 104 96 97 113 118 125 125 114 101 89 76 54 6 327 301 289 286 287 288 291 294 298 299 299 296 295
42 97 33 332 291 287 345 22 113 103 107 98 78 87 57 358 347 3 128 142 147 129 126 115 113 109 110 107 106 105 101 91 79 64 36 11 346 328 311 300 295 294 296 297 300 302 301 298 294
115 85 219 234 283 329 348 5 9 80 112 78 118 90 61 8 102 150 164 158 151 141 132 132 130 129 135 132 124 114 104 86 64 44 29 13 358 338 325 315 306 302 300 299 299 298 298 296 295
107 97 122 264 241 270 321 74 303 37 74 121 160 159 153 202 146 151 157 156 150 153 151 149 144 140 140 136 122 117 117 112 92 63 46 21 355 338 330 325 320 312 302 299 299 297 295 296 298
119 70 196 242 195 205 169 120 62 40 74 53 64 103 132 154 151 150 148 154 140 130 128 151 147 127 113 115 109 108 84 61 76 88 49 14 344 317 300 299 300 300 300 299 293 297 298 294 290
92 125 217 217 213 308 59 144 140 107 89 86 95 104 131 144 165 125 94 77 93 60 53 158 124 112 112 127 139 119 89 72 75 53 14 352 328 308 299 285 285 267 285 310 304 296 299 294 288
159 203 215 255 226 193 88 119 82 131 75 137 145 140 121 87 58 44 45 55 47 46 58 66 74 139 128 143 164 133 91 73 53 9 2 350 313 292 291 298 289 315 350 332 338 313 301 291 280
195 240 211 271 106 251 176 120 84 13 121 134 120 101 79 65 49 42 43 46 47 48 51 65 72 88 124 125 131 93 36 355 341 339 338 291 267 293 292 293 294 345 331 351 354 335 297 305 294
214 262 237 260 92 64 93 71 109 85 108 101 86 75 69 68 60 49 48 50 49 47 46 46 64 80 93 100 84 50 12 353 357 6 357 335 333 331 302 4 81 36 32 349 312 327 311 310 313
228 266 274 84 97 113 103 47 94 86 99 94 83 72 68 67 63 56 47 47 53 55 53 51 55 60 55 49 50 57 44 52 57 46 39 29 22 7 14 22 350 346 356 306 265 248 256 296 309
277 322 25 129 126 118 92 31 73 116 105 98 95 94 79 67 62 63 61 58 55 59 60 59 56 66 62 51 67 63 73 64 52 30 28 16 5 352 342 333 321 331 329 282 247 255 265 262 255
2 46 42 156 169 175 75 148 129 115 111 109 106 93 82 74 78 69 71 70 67 69 67 66 70 76 78 55 59 62 66 59 53 48 40 35 13 3 9 7 3 1 356 354 263 270 269 273 276
5 248 256 280 184 119 105 144 163 129 112 91 78 75 77 80 71 75 73 74 69 66 65 60 58 64 71 81 72 73 70 61 48 44 39 31 25 20 18 12 4 12 11 11 6 350 340 313 281
264 343 300 245 108 78 117 130 136 110 95 89 78 67 46 58 51 64 67 68 66 62 61 59 57 60 68 81 70 57 52 47 40 36 29 19 16 12 9 7 4 5 4 5 0 2 356 358 345
223 233 260 39 106 70 106 126 125 105 98 91 64 50 49 50 69 76 76 71 67 62 59 55 54 51 53 55 32 29 32 28 28 23 13 7 0 358 354 352 351 355 0 358 358 354 355 352 351
185 242 77 81 42 86 112 94 72 90 96 144 160 184 186 150 78 79 77 74 68 67 63 57 53 49 46 46 46 45 26 12 12 10 10 8 4 357 353 349 347 346 342 340 345 353 351 335 1
42 67 63 125 71 92 100 78 147 94 129 147 184 207 215 173 140 102 88 83 76 72 68 61 53 48 43 33 27 25 19 12 9 11 12 13 12 10 7 8 6 2 356 351 345 342 341 329 329
98 182 119 134 103 165 222 187 197 171 175 181 184 200 212 188 141 129 112 91 86 82 71 63 54 46 36 28 30 33 33 24 11 8 11 16 18 15 12 12 12 12 6 358 349 345 338 326 318
165 123 84 125 123 114 160 98 256 147 199 192 194 220 212 184 160 142 123 111 101 91 79 68 55 44 38 36 35 35 33 26 16 12 9 11 14 16 13 12 10 9 6 3 353 342 336 331 315
107 77 41 54 92 72 306 146 198 184 193 183 187 209 185 159 139 122 131 117 103 96 85 70 57 54 45 41 39 35 28 19 12 10 9 9 9 13 16 15 11 6 5 4 3 360 353 339 318
68 54 359 352 4 216 330 83 226 207 191 181 169 178 171 155 138 135 135 119 105 96 76 61 51 50 42 36 31 27 22 15 13 10 2 360 2 6 7 6 6 7 7 10 10 16 17 14 5
83 131 149 209 226 266 353 47 232 278 187 135 159 171 159 150 133 132 128 117 102 86 69 56 47 41 35 26 23 20 18 14 5 2 3 5 0 3 10 11 13 9 14 14 15 21 24 22 22
161 57 166 103 24 36 209 314 269 79 113 145 158 159 176 139 137 128 127 117 100 89 67 49 41 34 26 23 24 19 21 13 5 2 6 7 13 9 4 8 13 18 20 17 21 34 34 38 41
98 154 58 15 204 270 290 252 236 192 176 165 171 180 165 141 128 127 133 115 101 79 68 55 45 32 23 18 15 16 20 15 16 21 19 16 18 21 18 18 18 18 23 33 45 44 39 37 37
29 48 54 109 129 173 247 261 221 196 188 182 183 181 156 147 136 135 128 113 97 81 75 75 46 33 19 10 14 18 9 9 24 36 42 36 39 41 41 40 46 49 50 51 45 47 47 51 48
157 158 135 121 225 132 146 272 346 211 183 174 179 154 126 125 132 136 127 115 95 83 91 67 43 34 29 20 12 15 23 33 46 37 48 54 52 51 46 43 46 46 43 48 54 47 38 31 25